Satellite-Ground Cal/Val Site Overpasses Predictions

Prediction of Satellite NPP Overpassing Cal/Val Site: Antarctic Dome C

Ground Cal/Val Site Location: Latitude: -75.10, Longitude: 123.35; Satellite-Ground Site NADIR distance within 100 km.

Table of predicted overpasses for the next 14.0 days since TLE Epoch: 1/14/2012
Interval Starting Time Ending Time Minimum Distance Time Minimum Distance (km)
1 01/16/2012 14:54:12 01/16/2012 14:54:41 01/16/2012 14:54:26 16.69
2 01/17/2012 14:35:29 01/17/2012 14:35:41 01/17/2012 14:35:35 90.36
3 01/18/2012 07:36:59 01/18/2012 07:37:26 01/18/2012 07:37:12 36.68
4 01/19/2012 07:18:11 01/19/2012 07:18:30 01/19/2012 07:18:20 73.73
5 01/21/2012 15:00:20 01/21/2012 15:00:45 01/21/2012 15:00:33 53.08
6 01/22/2012 14:41:30 01/22/2012 14:41:54 01/22/2012 14:41:42 56.04
7 01/23/2012 07:43:10 01/23/2012 07:43:30 01/23/2012 07:43:20 71.31
8 01/24/2012 07:24:14 01/24/2012 07:24:42 01/24/2012 07:24:28 36.88
9 01/26/2012 15:06:34 01/26/2012 15:06:47 01/26/2012 15:06:40 90.21
